RYR2889 LEBL-LEPA

Flight info

Callsign RYR2889
Flight time 0h 34m
Altitude 19000
Route LARPA N859 TOLSO
Aircraft A320/M-SDE3FGHIRWY/LB1

Departure

Time 2026-05-07 08:37
Airport Josep Tarradellas Barcelona-El Prat Airport (LEBL)

Arrival

Time 2026-05-07 09:11
Airport Palma de Mallorca Airport (LEPA)
Time Latitude Longitude Altitude Speed Heading
2026-05-07 08:25 41.30062 2.07512 21 ft 0 kts 336°
2026-05-07 08:28 41.30052 2.07519 24 ft 4 kts 333°
2026-05-07 08:28 41.30035 2.07528 23 ft 4 kts 342°
2026-05-07 08:28 41.30009 2.07537 22 ft 4 kts 354°
2026-05-07 08:28 41.29999 2.07538 20 ft 1 kts 356°
2026-05-07 08:30 41.30003 2.07539 20 ft 2 kts
2026-05-07 08:30 41.30012 2.07549 20 ft 2 kts 46°
2026-05-07 08:30 41.30015 2.07583 19 ft 6 kts 88°
2026-05-07 08:31 41.30019 2.07660 18 ft 10 kts 103°
2026-05-07 08:31 41.29951 2.07723 16 ft 14 kts 149°
2026-05-07 08:31 41.29947 2.07822 18 ft 13 kts 62°
2026-05-07 08:31 41.29987 2.07940 17 ft 15 kts 65°
2026-05-07 08:32 41.29953 2.08042 18 ft 15 kts 154°
2026-05-07 08:32 41.29844 2.08096 18 ft 19 kts 159°
2026-05-07 08:32 41.29702 2.08177 18 ft 25 kts 155°
2026-05-07 08:32 41.29535 2.08278 16 ft 27 kts 155°
2026-05-07 08:33 41.29358 2.08384 19 ft 27 kts 156°
2026-05-07 08:33 41.29201 2.08448 20 ft 23 kts 194°
2026-05-07 08:33 41.29041 2.08373 19 ft 26 kts 199°
2026-05-07 08:33 41.28860 2.08289 18 ft 29 kts 199°
2026-05-07 08:34 41.28698 2.08214 19 ft 14 kts 211°
2026-05-07 08:34 41.28644 2.08095 17 ft 16 kts 246°
2026-05-07 08:34 41.28592 2.07943 16 ft 19 kts 245°
2026-05-07 08:34 41.28533 2.07769 16 ft 22 kts 246°
2026-05-07 08:35 41.28476 2.07608 18 ft 14 kts 238°
2026-05-07 08:35 41.28384 2.07543 16 ft 16 kts 200°
2026-05-07 08:35 41.28301 2.07463 17 ft 15 kts 244°
2026-05-07 08:35 41.28244 2.07441 19 ft 8 kts 136°
2026-05-07 08:36 41.28258 2.07513 20 ft 13 kts 65°
2026-05-07 08:36 41.28397 2.07920 20 ft 84 kts 65°
2026-05-07 08:36 41.28720 2.08864 21 ft 138 kts 65°
2026-05-07 08:36 41.29139 2.10100 471 ft 147 kts 67°
2026-05-07 08:37 41.29311 2.11424 1199 ft 147 kts 96°
2026-05-07 08:37 41.29172 2.12770 1832 ft 151 kts 97°
2026-05-07 08:37 41.29029 2.14256 2162 ft 173 kts 97°
2026-05-07 08:37 41.28878 2.15934 2508 ft 195 kts 96°
2026-05-07 08:38 41.28715 2.17779 3098 ft 205 kts 96°
2026-05-07 08:38 41.28545 2.19697 3820 ft 212 kts 96°
2026-05-07 08:38 41.28371 2.21669 4550 ft 218 kts 96°
2026-05-07 08:38 41.28190 2.23696 5279 ft 224 kts 97°
2026-05-07 08:39 41.28004 2.25775 6027 ft 229 kts 97°
2026-05-07 08:39 41.27815 2.27894 6770 ft 233 kts 96°
2026-05-07 08:39 41.27618 2.30052 7510 ft 237 kts 100°
2026-05-07 08:39 41.27100 2.32165 8099 ft 250 kts 116°
2026-05-07 08:40 41.26327 2.34318 8475 ft 273 kts 117°
2026-05-07 08:40 41.25461 2.36667 8989 ft 290 kts 117°
2026-05-07 08:40 41.24562 2.39103 9783 ft 296 kts 117°
2026-05-07 08:40 41.23641 2.41607 10334 ft 311 kts 117°
2026-05-07 08:41 41.22657 2.44289 10587 ft 334 kts 117°
2026-05-07 08:41 41.21623 2.47118 11130 ft 344 kts 117°
2026-05-07 08:41 41.20574 2.49994 11862 ft 348 kts 117°
2026-05-07 08:41 41.19517 2.52892 12635 ft 350 kts 117°
2026-05-07 08:42 41.18450 2.55813 13418 ft 353 kts 117°
2026-05-07 08:42 41.17377 2.58750 14147 ft 355 kts 117°
2026-05-07 08:42 41.16196 2.61644 14787 ft 358 kts 127°
2026-05-07 08:42 41.14500 2.64047 15378 ft 358 kts 144°
2026-05-07 08:43 41.12351 2.65698 15988 ft 358 kts 161°
2026-05-07 08:43 41.09937 2.66471 16607 ft 358 kts 177°
2026-05-07 08:43 41.07446 2.66387 17241 ft 359 kts 186°
2026-05-07 08:43 41.04946 2.66107 17889 ft 363 kts 186°
2026-05-07 08:44 41.02418 2.65823 18511 ft 366 kts 186°
2026-05-07 08:44 40.99871 2.65544 18889 ft 368 kts 186°
2026-05-07 08:44 40.97353 2.65227 18994 ft 370 kts 191°
2026-05-07 08:44 40.94844 2.64394 19016 ft 373 kts 201°
2026-05-07 08:45 40.92496 2.62935 19018 ft 373 kts 212°
2026-05-07 08:45 40.90366 2.60981 19016 ft 373 kts 217°
2026-05-07 08:45 40.88260 2.58970 19022 ft 373 kts 216°
2026-05-07 08:45 40.86151 2.56971 19019 ft 373 kts 216°
2026-05-07 08:46 40.84040 2.54979 19021 ft 373 kts 216°
2026-05-07 08:46 40.81929 2.52990 19020 ft 373 kts 216°
2026-05-07 08:46 40.79817 2.51003 19019 ft 373 kts 216°
2026-05-07 08:46 40.77705 2.49014 19014 ft 373 kts 216°
2026-05-07 08:47 40.75593 2.47024 19015 ft 373 kts 216°
2026-05-07 08:47 40.73481 2.45030 19017 ft 373 kts 216°
2026-05-07 08:47 40.71369 2.43040 19023 ft 373 kts 216°
2026-05-07 08:47 40.69255 2.41052 19018 ft 373 kts 216°
2026-05-07 08:48 40.67141 2.39066 19023 ft 373 kts 215°
2026-05-07 08:48 40.64880 2.37390 19021 ft 374 kts 204°
2026-05-07 08:48 40.62386 2.36422 19022 ft 376 kts 191°
2026-05-07 08:48 40.59772 2.36213 19015 ft 378 kts 179°
2026-05-07 08:49 40.57205 2.36766 19018 ft 381 kts 167°
2026-05-07 08:49 40.54644 2.37677 19014 ft 381 kts 167°
2026-05-07 08:49 40.52083 2.38580 19013 ft 381 kts 167°
2026-05-07 08:49 40.49583 2.39773 19010 ft 385 kts 157°
2026-05-07 08:50 40.47250 2.41521 19009 ft 387 kts 151°
2026-05-07 08:50 40.44968 2.43391 19009 ft 387 kts 150°
2026-05-07 08:50 40.42688 2.45261 19008 ft 387 kts 151°
2026-05-07 08:50 40.40406 2.47132 19003 ft 387 kts 150°
2026-05-07 08:51 40.38126 2.49003 19005 ft 387 kts 150°
2026-05-07 08:51 40.35844 2.50874 19004 ft 387 kts 151°
2026-05-07 08:51 40.33558 2.52741 19002 ft 387 kts 151°
2026-05-07 08:51 40.31269 2.54607 19002 ft 388 kts 151°
2026-05-07 08:52 40.28980 2.56471 19004 ft 388 kts 151°
2026-05-07 08:52 40.26691 2.58335 19003 ft 388 kts 151°
2026-05-07 08:52 40.24401 2.60200 19002 ft 388 kts 151°
2026-05-07 08:52 40.22111 2.62066 19002 ft 388 kts 151°
2026-05-07 08:53 40.19819 2.63927 19002 ft 388 kts 151°
2026-05-07 08:53 40.17528 2.65788 18999 ft 388 kts 151°
2026-05-07 08:53 40.15240 2.67650 18997 ft 388 kts 151°
2026-05-07 08:53 40.12948 2.69510 18994 ft 388 kts 151°
2026-05-07 08:54 40.10681 2.71342 18996 ft 388 kts 151°
2026-05-07 08:54 40.08385 2.73194 18994 ft 388 kts 152°
2026-05-07 08:54 40.06085 2.75046 18994 ft 388 kts 152°
2026-05-07 08:54 40.03811 2.76881 18994 ft 381 kts 152°
2026-05-07 08:55 40.01561 2.78697 18996 ft 380 kts 152°
2026-05-07 08:55 39.99316 2.80508 18997 ft 380 kts 152°
2026-05-07 08:55 39.97068 2.82319 18997 ft 380 kts 152°
2026-05-07 08:55 39.94745 2.83922 18991 ft 376 kts 163°
2026-05-07 08:56 39.92225 2.84650 18993 ft 367 kts 179°
2026-05-07 08:56 39.89756 2.84482 18918 ft 347 kts 191°
2026-05-07 08:56 39.87411 2.84042 18795 ft 334 kts 191°
2026-05-07 08:56 39.85144 2.83612 18612 ft 325 kts 191°
2026-05-07 08:57 39.82920 2.83188 18282 ft 322 kts 191°
2026-05-07 08:57 39.80722 2.82770 18080 ft 315 kts 191°
2026-05-07 08:57 39.78644 2.82101 17934 ft 301 kts 206°
2026-05-07 08:57 39.76912 2.80694 17766 ft 290 kts 223°
2026-05-07 08:58 39.75619 2.78717 17466 ft 286 kts 236°
2026-05-07 08:58 39.74502 2.76579 17116 ft 286 kts 236°
2026-05-07 08:58 39.73385 2.74450 16794 ft 285 kts 236°
2026-05-07 08:58 39.72270 2.72329 16456 ft 284 kts 236°
2026-05-07 08:59 39.71156 2.70215 16144 ft 283 kts 236°
2026-05-07 08:59 39.70046 2.68110 15822 ft 282 kts 235°
2026-05-07 08:59 39.68939 2.66012 15497 ft 281 kts 235°
2026-05-07 08:59 39.67835 2.63919 15179 ft 280 kts 236°
2026-05-07 09:00 39.66733 2.61835 14882 ft 279 kts 235°
2026-05-07 09:00 39.65651 2.59787 14588 ft 278 kts 235°
2026-05-07 09:00 39.64559 2.57721 14265 ft 278 kts 235°
2026-05-07 09:00 39.63468 2.55655 13945 ft 277 kts 234°
2026-05-07 09:01 39.62380 2.53598 13631 ft 276 kts 234°
2026-05-07 09:01 39.61293 2.51549 13277 ft 275 kts 234°
2026-05-07 09:01 39.60214 2.49518 12696 ft 273 kts 234°
2026-05-07 09:01 39.59132 2.47478 11959 ft 277 kts 234°
2026-05-07 09:02 39.58028 2.45410 11223 ft 281 kts 234°
2026-05-07 09:02 39.56901 2.43322 10501 ft 284 kts 234°
2026-05-07 09:02 39.55763 2.41226 9851 ft 284 kts 234°
2026-05-07 09:02 39.54622 2.39133 9168 ft 284 kts 234°
2026-05-07 09:03 39.53420 2.37123 8506 ft 282 kts 221°
2026-05-07 09:03 39.51757 2.35866 7888 ft 277 kts 194°
2026-05-07 09:03 39.49863 2.35744 7260 ft 273 kts 166°
2026-05-07 09:03 39.48097 2.36586 6641 ft 271 kts 153°
2026-05-07 09:04 39.46396 2.37632 6018 ft 270 kts 152°
2026-05-07 09:04 39.44716 2.38676 5427 ft 267 kts 152°
2026-05-07 09:04 39.43049 2.39709 4863 ft 264 kts 152°
2026-05-07 09:04 39.41441 2.40814 4272 ft 258 kts 137°
2026-05-07 09:05 39.40544 2.42627 4118 ft 231 kts 99°
2026-05-07 09:05 39.40759 2.44575 3989 ft 218 kts 59°
2026-05-07 09:05 39.41879 2.45808 3862 ft 212 kts 28°
2026-05-07 09:05 39.43083 2.46783 3731 ft 198 kts 52°
2026-05-07 09:06 39.43813 2.48197 3601 ft 187 kts 59°
2026-05-07 09:06 39.44495 2.49589 3461 ft 180 kts 60°
2026-05-07 09:06 39.45160 2.50971 3218 ft 178 kts 60°
2026-05-07 09:06 39.45802 2.52314 3049 ft 179 kts 60°
2026-05-07 09:07 39.46452 2.53676 3046 ft 178 kts 60°
2026-05-07 09:07 39.47100 2.55036 2847 ft 175 kts 60°
2026-05-07 09:07 39.47728 2.56357 2629 ft 170 kts 60°
2026-05-07 09:07 39.48340 2.57641 2414 ft 166 kts 60°
2026-05-07 09:08 39.48938 2.58898 2194 ft 162 kts 60°
2026-05-07 09:08 39.49524 2.60132 1987 ft 160 kts 60°
2026-05-07 09:08 39.50103 2.61351 1759 ft 158 kts 60°
2026-05-07 09:08 39.50671 2.62546 1551 ft 153 kts 60°
2026-05-07 09:09 39.51205 2.63669 1350 ft 139 kts 60°
2026-05-07 09:09 39.51706 2.64725 1173 ft 135 kts 60°
2026-05-07 09:09 39.52195 2.65756 997 ft 137 kts 60°
2026-05-07 09:09 39.52695 2.66811 823 ft 137 kts 58°
2026-05-07 09:10 39.53193 2.67860 638 ft 137 kts 58°
2026-05-07 09:10 39.53693 2.68912 467 ft 137 kts 60°
2026-05-07 09:10 39.54184 2.69953 266 ft 133 kts 58°
2026-05-07 09:10 39.54672 2.70972 86 ft 134 kts 58°
2026-05-07 09:11 39.55125 2.71929 30 ft 106 kts 58°
2026-05-07 09:11 39.55420 2.72552 30 ft 57 kts 58°
2026-05-07 09:11 39.55508 2.72770 30 ft 16 kts 96°
2026-05-07 09:11 39.55447 2.72900 30 ft 18 kts 124°
2026-05-07 09:12 39.55430 2.73025 30 ft 16 kts 61°
2026-05-07 09:12 39.55494 2.73156 30 ft 18 kts 59°
2026-05-07 09:12 39.55565 2.73309 30 ft 21 kts 58°
2026-05-07 09:12 39.55624 2.73433 30 ft 16 kts 60°
2026-05-07 09:13 39.55572 2.73542 30 ft 18 kts 149°
2026-05-07 09:13 39.55458 2.73633 30 ft 21 kts 148°
2026-05-07 09:13 39.55326 2.73736 30 ft 24 kts 149°
2026-05-07 09:13 39.55216 2.73821 30 ft 11 kts 152°
2026-05-07 09:14 39.55170 2.73767 30 ft 9 kts 275°
2026-05-07 09:14 39.55174 2.73681 30 ft 11 kts 245°
2026-05-07 09:14 39.55128 2.73583 30 ft 14 kts 238°
2026-05-07 09:14 39.55096 2.73526 30 ft 5 kts 207°
2026-05-07 09:15 39.55057 2.73537 30 ft 6 kts 164°
2026-05-07 09:15 39.55049 2.73540 30 ft 0 kts 163°